sat.trackr.live / text

‹ back to catalog

KUIPER-00204

NORAD 67145 · 2025-301N

PAYLOAD ACTIVE UNKNOWN

§ Identity

Operator
Country
US
Launch date
2025-12-16
Launch site
AFETR
Launch vehicle
Mass (kg)
RCS (m²)

External: N2YO · Heavens-Above · Gunter

§ Orbital elements

Epoch: 2026-09-20T23:26:39.479712Z

Period
97.30 min
Inclination
51.9017°
Eccentricity
0.0000591
Mean motion
14.79945929 rev/d
Perigee alt
629.1 km
Apogee alt
629.9 km
Semi-major
7,007.6 km
B*
2.3660e-4
RAAN
262.0818°
Arg perigee
60.9560°
Mean anomaly
299.1461°
Rev number
4,304

§ Raw data

KUIPER-002041 67145U 25301N   26263.97684583  .00001584  00000+0  23660-3 0  99902 67145  51.9017 262.0818 0000591  60.9560 299.1461 14.79945929 43048

JSON: /api/v1/satellites/67145 · /tle

For live sub-satellite position, see the globe view (requires WebGL).

§ Visibility from observer

Set your observer location to see the next 7 days of passes ≥ 10°. The values pass through the URL so the page stays shareable.

No JS? Fill the form by hand. The geolocation button needs JavaScript.